CAPE
2281 2904 2472 2258 2082 2562 2578 2610 2076 1630 1396 1186 1107 982 981 906 575 480 559 591 565 942 1610 1781 1893 1802 1677 1609 1319 1376 1708 1658 1661 1758 2435 2661 2763 2540 2650 2575 2768 2782 2777 2839 2232 2611 3608 3545 3790 3859 3444 3600 3295 3088 2873 3246 3590 3370 2875 2847 2684 2791 2960 3190 3285 3018 2822 2284 2111 2406 1642 1966 1584 2721 3143 2820 2698 3716 2957 2815 3377 3192 3172 3908 4534
2083 2567 2555 2222 1935 2337 2223 2189 2293 1807 1341 1128 1249 1020 1015 1014 723 471 333 594 564 565 1368 1524 1615 1651 1632 1617 1492 1226 1498 1839 1570 1530 1867 2354 2579 2280 2214 2590 3142 3135 2815 2701 2270 2633 2972 2980 2995 2913 3037 2793 2548 2268 2198 2088 2256 2646 2835 2340 2594 2548 2587 2771 3246 3238 3007 2757 2487 2315 2264 2098 2594 2359 2893 3109 2512 3056 3035 3176 2762 2858 2642 2657 4364
1736 2581 2572 2500 2175 2070 1970 2167 2131 1752 1256 814 912 701 926 1010 1016 766 358 302 695 685 625 1013 1158 1584 1668 1680 1637 1516 1648 1871 2020 1708 1668 1958 2416 2314 1830 1966 2225 2413 2380 2443 2348 2434 2314 2406 2563 2424 2142 2187 2376 2153 1792 1331 1482 1907 2001 2184 2295 2385 2291 2760 3269 3412 3247 2840 2536 2323 2236 2254 2617 2518 2841 3026 3501 3484 3610 3463 3197 2192 2348 2281 2524
1825 2089 2350 2530 2270 2028 2080 1706 1769 1558 1070 827 747 471 265 574 1064 1070 675 200 195 707 646 673 832 1364 1693 1609 1692 1789 1781 1884 2182 1773 1706 1840 2073 2508 2238 2013 1926 2006 1993 1877 1926 1964 1944 2213 2104 1775 1729 1758 1986 2112 1982 1815 1624 1439 1538 1816 2408 2674 2625 2493 3161 3760 3542 3153 3332 2694 2397 2452 2903 3028 2970 3104 3304 3274 3441 3406 3043 2807 2584 2758 2195
1907 2610 2358 2414 2206 2172 1959 1669 1569 1510 1294 934 670 412 108 57 357 704 644 214 19 228 626 715 900 1292 1444 1824 1766 1882 2122 2161 2156 1874 1672 1739 2060 2131 2158 2221 2072 2149 2032 2011 1804 1862 1956 1928 1821 1766 1782 1827 1872 1893 1750 1794 1672 1424 1442 1545 1808 1950 2233 2420 2886 3309 3812 3871 3882 3798 3508 3378 3544 3749 3500 2989 2865 3140 3461 4054 4189 3941 3397 2933 2472
1075 1818 1688 1980 2308 2020 1986 1689 1432 1485 1247 1046 656 528 294 12 16 366 544 380 88 3 224 533 536 1047 1473 1671 1852 1765 1998 2147 2200 2104 1608 1531 1615 1814 1807 1865 1887 2093 2147 2017 1966 2018 1853 2072 1897 1803 1834 1814 1698 1354 1587 1566 1629 1664 1638 1645 1509 1665 2080 2399 2893 3208 3241 3603 3907 3791 3650 3341 3395 3714 3610 3736 3683 3302 2848 2667 2693 3248 4182 4551 3848
2151 1010 1767 1961 2006 2133 2001 1848 1542 1187 1294 1081 782 628 396 88 9 41 308 388 249 33 10 330 558 653 1158 1579 1578 1710 1792 1860 2218 2270 2137 1725 1369 1619 1504 1458 1633 1665 1704 1627 1396 1472 1662 1766 1860 1878 1932 1832 1768 1608 1589 1740 1795 1744 1817 2023 2012 1876 1926 2217 2469 2655 2960 3141 3246 3136 3165 3103 2897 3194 3321 3504 3652 3829 3322 2689 2350 2306 3066 3824 4260
1633 1855 2489 1933 2237 2236 1976 1778 1744 1599 1403 1599 1176 635 476 352 142 54 155 267 199 58 8 9 333 656 820 1139 1353 1332 1573 1860 2143 2302 2396 2136 1530 1340 1526 1473 1259 1368 1162 1163 1137 725 673 845 817 888 1352 1762 1928 1939 1859 1400 1634 1853 1691 1760 1994 2163 2129 1798 1869 2054 2625 2520 2499 2440 2363 3273 3085 2506 2583 2988 3191 3237 3442 3614 3753 3865 3741 3614 3302
1100 1181 1860 2051 2791 2229 2008 1914 1656 1855 1712 2278 1748 1043 560 618 605 362 190 166 186 104 4 0 46 285 561 923 1187 952 687 1262 1695 2089 2239 2346 2055 1242 1245 1684 1606 940 804 783 861 781 437 306 276 242 665 2485 2046 2558 2006 3714 2799 1887 2053 2116 2368 2574 2694 2570 2326 2424 2407 2435 2729 2592 2182 2474 2383 2538 1943 2240 2762 2976 2660 1996 2446 2393 2162 2081 3490
1477 1317 1030 1889 1821 2381 2655 2793 2270 2422 2190 2588 2684 1948 1046 764 540 566 550 357 427 409 219 38 0 58 280 689 1016 852 468 281 1052 1140 1706 2069 2108 1314 1000 1452 1826 1328 915 764 572 518 468 318 131 572 1778 2017 2783 2942 2571 2440 2584 1885 2022 2042 2777 3221 3317 3250 3200 2743 2536 2548 2473 2171 1922 1535 1394 1943 1998 2097 2498 2926 2564 2506 2682 3263 3420 3333 3589
1481 1122 1265 1472 1865 2294 2483 2706 2552 2983 2963 2611 2564 2888 2132 1289 1066 1543 1116 754 1109 1346 852 360 104 17 94 331 697 561 328 95 197 270 1159 1494 1822 1865 1416 1218 1599 1627 1216 1296 1009 587 341 249 267 391 2226 2483 3447 2634 2587 2193 2299 2047 1754 1665 2450 3904 3543 3282 3233 2977 2851 2341 2264 2232 1743 1437 950 704 496 314 216 216 484 1039 1528 2094 2704 2841 2904
1518 1418 1402 1334 1890 2194 2303 2577 2542 2772 3086 3072 3026 3063 2732 2177 1915 1770 1478 1124 1905 1003 923 1032 974 336 165 184 216 234 237 118 0 0 791 1242 1709 1729 1086 1090 909 965 1375 1311 1153 1025 861 471 230 149 263 660 820 3184 2672 2074 1949 1896 1643 1316 1050 959 1318 3273 3796 3381 3220 2884 2645 2366 1869 1487 1399 1257 1039 839 1096 1189 958 674 2026 2351 2813 2932 3051
1648 2010 2046 1756 1304 1623 2381 2380 2493 2619 2876 3143 3210 3232 3328 2946 2299 1704 1200 1216 1385 1955 1992 1517 1507 1286 779 718 321 258 238 92 0 0 565 1077 1268 1372 387 191 388 484 652 1137 1372 1397 1233 912 748 331 65 1035 2240 884 3020 3578 1670 1583 1604 1460 1356 1216 1095 838 870 2645 3620 3725 3361 3125 2840 2798 2706 2168 1392 1653 2010 2037 2303 1747 2236 2605 3047 3049 2942
1444 1479 1544 1764 1421 1285 1552 2517 2714 2825 2820 3127 3680 3592 2974 3300 2554 1935 1726 1897 1915 1927 1881 1949 1779 2142 1765 1420 1409 799 585 195 0 0 0 838 1064 1218 1077 275 20 8 280 275 474 901 1582 1762 1492 1220 1058 819 1002 959 1651 2281 4030 3619 2444 2214 2390 2155 1286 1028 982 897 1010 2040 2578 2590 2808 3082 3576 3644 3588 3343 3145 3537 3551 2965 2682 2131 2459 2900 2838
770 903 1138 1416 1504 1719 1539 1323 2172 2889 2786 1802 2632 3172 3562 3273 2699 2063 1621 1778 2070 2238 2123 2172 2122 2138 1978 1948 1836 1411 891 474 106 0 0 0 631 806 1418 940 524 232 61 205 586 382 1178 1356 1891 1935 2077 1830 1184 960 1092 1873 2698 3065 3919 4000 3225 2560 2602 2280 1766 1288 1379 1317 1628 2065 2393 2595 3043 3164 3534 3985 3516 3853 3487 3403 3036 2772 3140 3236 3314
825 800 870 1014 1159 1414 1785 1618 1390 1482 2147 1588 1622 1675 2149 3286 2631 2345 2142 1836 1867 2023 2427 2206 2146 2136 2218 2197 2067 1963 1521 904 862 757 576 518 501 670 1500 1627 1260 1040 896 677 484 854 758 867 1520 2066 2253 2676 2214 1217 1123 1599 1932 2684 2799 2841 3046 3198 2968 2477 1758 1386 1026 948 1335 1242 1211 1196 1192 1916 2359 2544 3244 4431 4266 4018 3549 3838 3927 3682 3148
733 761 871 832 774 1051 1439 1916 1763 1502 1866 1806 1804 1907 1918 1729 2508 2452 1951 2040 1881 1796 1982 2020 2067 1962 2113 2272 2222 2113 1971 1663 1115 987 913 908 803 799 1405 1508 1581 1540 1471 1522 1438 1088 813 1091 2114 1255 1418 2287 2220 1798 1337 1204 1905 1905 2581 2631 2323 1844 1534 1578 2092 1687 1202 784 744 1068 1093 1059 1078 1089 1073 1188 2479 3600 4176 3385 2938 3421 3755 3413 2577
555 630 741 815 859 975 1076 1165 1780 1980 2037 1547 1584 1607 1798 2091 2072 2490 2002 2284 2260 1890 1810 1936 2122 2236 2117 2031 1848 2226 2114 1917 1552 1328 1091 929 792 1105 1668 1618 1563 1632 1668 1761 1724 1655 1568 1344 1880 1710 1741 2168 1754 1815 1829 1503 2452 1837 1871 1937 2088 1953 1947 1344 702 1621 1556 1532 1178 968 1113 1227 1288 1232 1176 1269 1490 2001 3452 3395 2955 2840 3058 3082 2384
428 438 558 665 721 857 882 1108 1418 1478 1649 1725 1509 1412 1403 1412 1760 1551 1572 1828 2504 2416 2076 2089 2004 2028 1960 2016 1906 1928 2108 2030 1744 1629 1476 1271 1093 1241 1620 1588 1553 1612 1646 1846 1921 1930 1894 1770 1520 1910 1812 2286 2118 1904 1728 1866 2423 2210 2082 1979 1761 1672 1363 1048 830 624 1173 1770 1830 1694 1464 1640 1525 2040 2593 1653 1688 1727 3325 3562 3103 2705 2234 2185 2385
400 385 485 378 456 532 490 890 1159 1132 1258 1324 1862 1775 1653 1928 2031 2250 2155 2132 2367 1977 2687 2462 2176 1666 1514 1627 1983 1804 1737 2101 1917 1653 1601 1509 1362 1278 1689 1692 1680 1770 1906 1899 2110 2103 2114 2116 2194 1114 947 1105 1536 1918 1912 1659 2366 2407 2243 2002 2067 2050 1607 1139 1099 705 858 863 2596 2907 3073 3246 3336 3263 3368 3292 2677 1855 2734 2940 2689 2482 2416 2385 2183
167 360 471 520 666 612 619 585 627 853 1180 1314 1277 1297 1858 1645 1637 1843 1685 2026 1698 1663 2007 2799 2627 2568 2427 2445 2397 1926 1687 1750 2934 1619 1585 1553 1463 1344 1332 1644 1732 1871 2026 2168 2074 2097 2124 2178 2183 1850 1562 1267 1045 982 1363 1580 1509 2548 2431 2417 2196 2167 1806 1633 1436 1884 1153 1489 2056 2237 3377 3783 3688 3606 3323 3220 3044 2958 2552 1945 2121 2012 2048 1957 1791
0 0 250 459 643 621 684 732 750 864 1035 1042 957 862 1108 1474 1778 1581 1888 2120 1842 1822 1961 2008 2462 2504 2378 2195 2312 2272 2200 1726 2060 1855 1602 1508 1462 1394 1290 1170 1577 1759 1965 2158 2209 2214 2288 2232 2310 2352 1804 1732 1655 1526 1358 1184 1070 1203 2544 1710 1789 1704 1789 1918 1573 1538 1661 1278 1330 1436 1254 1274 1985 3200 3251 3245 3215 3088 3104 2938 2143 1770 1743 1463 1506
0 0 0 57 414 536 656 710 872 851 1020 1040 1066 1084 990 1049 1288 1748 2119 1998 2183 2393 2095 1872 2474 2430 2453 2429 1695 1857 2181 2618 2141 2257 1535 1602 1620 1530 1448 1412 1357 1813 1543 1780 2174 2250 2340 2446 2500 2053 1842 1757 1700 1633 1543 1430 1324 1202 1106 1082 1128 1126 1120 1388 1432 1336 1394 1569 1849 2241 1993 1481 1412 1494 1535 2040 2489 2785 2591 2877 2891 2311 1756 1439 1526
0 0 0 0 1 168 448 448 423 446 603 818 1024 1047 1197 1181 1070 1308 1485 1734 1913 2214 2097 2274 2321 2019 2217 2212 1944 1697 2165 2407 2127 1882 1821 1430 1346 1443 1506 1515 1523 1530 1560 1611 1619 1716 1887 2492 2734 2093 2027 1956 1892 1842 1791 1732 1672 1561 1446 1294 1010 742 677 962 1156 1220 1430 1310 1513 1760 1907 1876 1708 1852 1951 2098 1946 2445 2663 2035 2255 2590 2385 1771 2117
0 0 0 0 0 0 0 249 365 496 568 285 418 703 1031 1382 1616 1372 1681 1550 1559 1920 2177 2147 2229 2253 2146 2228 2149 1962 2085 2296 2248 2492 1738 1685 1452 1263 1185 1528 1607 1741 1866 1888 1778 1656 1850 1694 1791 1924 1906 1890 1882 1831 1824 1781 1755 1719 1658 1574 1400 1047 694 668 836 992 1121 1346 1479 1528 1498 1792 2072 2226 2604 3127 3108 2677 3276 2247 1545 1156 1674 2979 2853
0 0 0 0 0 0 0 0 3 44 179 184 372 695 619 640 1501 1683 1359 1431 1493 1660 1822 1892 2103 2079 1920 2030 2192 2032 2094 2240 2186 2912 1932 1763 1792 1628 1466 1515 1804 2052 2196 2254 2255 2239 2252 2114 1869 1726 1715 1716 1749 1772 1769 1764 1732 1733 1790 1825 1772 1496 1071 699 862 930 1012 1111 1335 1559 1627 1689 1707 1984 3164 3785 3538 3308 2932 2866 2270 1609 2002 2653 3414
0 0 0 0 0 0 0 0 0 14 26 63 223 622 806 981 1104 1231 1504 1480 1394 1342 1366 1566 1747 1835 1968 2037 2083 2169 2171 2199 1990 2118 3559 2831 2139 2431 2652 2667 2628 2549 2457 2419 2332 2304 2363 2389 2390 2238 1920 1838 1850 1856 1852 1881 1892 1900 1876 1904 1887 1767 1533 1120 780 999 1111 1176 1178 1300 1556 1801 1996 2486 3268 3578 3826 3552 3041 3259 2582 2225 2350 2343 2680
0 0 0 0 0 0 0 0 3 0 22 156 244 546 1402 841 551 957 1260 1149 1117 1228 905 1434 1528 1638 1829 2420 2395 2365 2218 2100 1714 2400 1824 2251 2572 2669 2632 2427 2122 2187 2428 2414 2262 2171 2265 2377 2436 2469 2242 1962 1798 1820 1900 1912 1918 1936 1923 1917 1923 1886 1766 1541 1214 988 1211 1410 1504 1447 1469 2080 2329 2182 2208 2222 2380 2867 3369 3228 2950 2795 2390 2362 2659
0 0 0 0 0 0 0 0 0 0 0 17 64 113 328 497 478 358 257 512 975 1569 986 894 1174 1036 1632 1787 1615 1640 1790 1892 1550 1820 2176 2102 1932 2128 2089 2565 1667 1722 1710 1660 1740 1818 1838 1695 1657 1909 1995 1705 1574 1642 1771 1834 1899 1918 1932 1879 1884 1918 1915 1865 1642 1296 963 1306 1497 1771 1777 1868 1949 2053 2115 2073 2656 2472 3240 3781 4083 3925 3697 2987 2449
0 0 0 0 0 0 0 0 0 0 0 0 0 28 99 28 496 313 284 188 148 0 317 408 781 813 801 941 1313 1522 1906 1800 1836 1773 1718 1882 2072 2028 1971 2066 2081 2214 1812 1626 1488 1457 1462 1306 1332 1581 1813 1922 1740 1763 1597 1885 2076 2001 1861 1693 1678 1707 1768 1847 1778 1585 1308 1141 1417 1515 1732 1947 2122 2176 2184 2094 2567 2312 2786 2913 3856 4049 4002 3478 3172
2 0 0 0 0 0 0 0 0 0 0 0 0 6 36 33 0 0 0 0 101 97 0 0 0 0 0 236 383 110 643 926 1446 1693 1864 2007 2118 2087 2032 1943 1880 1852 1837 1771 1739 1706 1679 1582 1348 1535 1809 1932 2035 2237 2350 2003 2011 2315 2348 2033 1866 1709 1711 1718 1740 1684 1525 1186 1211 1418 1497 1730 1888 2226 2267 2225 2185 2409 2319 3098 3256 3612 3258 3151 3161
3 0 0 0 0 0 1 2 0 0 0 0 0 8 26 46 78 146 0 0 0 0 107 35 0 0 0 0 7 90 62 4 0 0 174 747 1402 1746 1879 1954 2025 2036 2027 1910 1855 1806 1780 1808 1779 1561 1838 1996 1816 1820 1915 2411 2089 2098 2472 2233 2114 2350 2099 2010 2063 1973 1684 1349 1284 1433 1479 1627 1828 1957 2005 2048 2331 2409 2315 2257 2278 2422 2631 2759 2903
3 0 0 0 0 0 0 4 13 8 2 3 4 6 2 8 5 4 844 0 0 0 0 0 0 0 0 0 0 0 0 151 415 488 691 939 1063 1027 922 861 1015 1298 1388 1725 1973 1978 1807 1660 1669 1663 1907 1925 2102 2214 2338 2479 2065 2061 2406 2503 2261 2602 2685 2761 1934 1988 1559 1344 1668 1427 1344 1660 1630 1749 1972 2191 2296 2251 2296 2246 2157 2060 2038 2258 2664
0 0 0 0 0 3 2 0 6 11 15 23 19 6 0 0 0 2 0 1 46 242 0 0 0 0 0 0 0 0 63 0 0 0 139 861 1280 1526 1662 1736 1714 1598 1563 1728 1945 2142 2162 2002 1777 1650 1912 2089 2047 1878 2235 2081 2377 2354 2525 2475 2454 2713 3226 3692 4082 2897 1908 1854 1725 1498 1428 1515 1929 2065 2103 2083 2178 2310 2324 2184 2090 1900 1966 1816 1661
6 2 0 0 1 1 2 0 0 10 26 18 9 6 2 0 0 0 0 0 0 0 2 61 71 0 0 0 0 0 0 0 0 0 0 0 458 957 1373 1633 1789 1823 1877 1973 2064 2246 2368 2415 2233 1861 1952 2218 2317 2268 2096 2288 2208 2289 2351 2236 2496 2501 2961 2908 2667 2847 2502 2121 2077 1880 1656 1628 1378 1503 1646 1678 1526 1546 1746 1961 1799 1574 1511 2066 2237
12 10 5 0 0 1 1 2 4 4 7 18 14 1 0 0 0 0 0 0 0 0 1 3 49 31 7 0 0 0 0 0 0 0 218 465 781 1151 1394 1670 1784 1840 1851 2001 2153 2324 2434 2550 2526 2281 2263 2506 2438 2362 2313 2257 2302 2418 2391 2334 2068 2418 2521 2131 2170 2881 3188 2686 2097 1926 1528 1382 1379 1421 1437 1462 1515 1462 1374 1492 1622 1489 1406 1504 2270
18 17 13 6 5 3 4 3 2 3 1 0 0 1 0 0 0 0 0 0 0 2 4 16 21 12 18 43 54 42 0 122 283 452 550 623 730 833 793 970 1423 1730 1808 1853 2008 2110 2216 2336 2468 2490 2385 2349 2519 2390 2195 2369 2437 2719 2642 3016 3121 2902 2592 2619 2633 1816 1763 1504 1581 1724 1610 1618 1556 1644 1621 1597 1628 1598 1473 1443 1449 1282 1165 1790 1975
18 22 24 18 19 12 10 12 7 6 10 4 2 0 0 0 0 0 0 0 0 0 0 7 0 24 67 112 187 288 1379 93 7 0 0 86 271 0 11 302 674 1110 1494 1785 2182 2069 2254 2348 2413 2274 2343 2433 2572 2582 2064 2572 2539 2425 2547 3060 3421 3471 2738 2621 2111 1990 2078 1785 1629 1558 1667 1890 1771 1580 1628 1720 1799 1723 1610 1521 1384 1300 1357 1642 1890
20 10 1 2 9 25 26 15 13 13 13 11 4 1 1 0 0 0 0 0 0 0 0 0 3 5 20 21 29 44 77 265 480 571 632 918 829 897 978 1030 1053 1135 1240 1401 1663 1931 2358 2626 2546 2659 2680 2404 2052 2530 2525 2318 2394 2446 2372 2762 2729 2323 3247 3618 2487 2389 2198 1965 1706 1563 1590 1645 1718 1786 1768 1798 1825 1837 1767 1580 1404 1391 1791 2049 2111
30 30 14 4 14 10 9 1 0 3 8 10 8 6 3 0 0 0 0 0 0 0 0 0 0 0 0 6 11 1 2 2 6 93 169 232 483 791 691 681 856 841 926 1146 1458 1846 2238 2351 2716 2472 3050 3395 2719 2304 2306 2392 2223 2272 2523 3128 2626 2729 2980 4163 2955 2749 2652 2526 2382 2231 2023 1920 1923 2031 1943 1660 1687 1772 1878 1824 1609 1792 2000 2185 2436
27 20 26 33 25 18 14 21 16 13 16 17 14 8 4 2 0 1 0 0 0 0 0 0 0 0 0 0 0 0 1 5 8 9 24 93 276 510 684 994 1052 1103 1148 1318 1431 1483 1658 1848 2139 2246 2255 2399 2588 2483 1858 1624 1805 2007 2139 2070 2037 2144 2473 3304 3632 2951 2637 2544 2580 2482 2346 2248 2172 2082 2034 1972 1859 1606 1940 1934 1740 1854 1763 1760 2094
23 29 51 29 29 21 22 17 13 18 22 23 19 13 9 5 4 5 2 1 0 0 0 0 0 0 0 0 1 1 0 0 0 4 9 50 126 272 337 420 447 499 681 970 1135 1212 1328 1500 1706 1941 2084 2117 2179 2265 2261 2016 2000 2163 2274 2260 2585 2586 2623 2806 3019 3476 3325 3123 3015 2838 2779 2276 2197 2190 2216 2223 2115 1932 2141 2179 2184 2103 2133 1914 1573
110 87 93 113 76 64 36 19 23 26 22 27 29 23 18 15 9 2 2 2 0 0 0 0 0 0 3 0 0 0 0 0 3 2 1 0 11 21 117 105 103 0 164 318 582 856 1109 1336 1457 1456 1586 1778 2024 2138 2152 2194 2302 2396 2383 2314 2221 2306 2438 2571 2789 3007 3456 3106 3105 2752 2577 2339 2215 2112 2081 2062 1870 2003 2312 2286 2077 2081 1986 1975 1882
4 51 119 106 111 107 75 57 46 34 33 30 33 22 17 16 11 6 4 2 1 1 1 0 0 1 2 0 1 1 2 1 1 0 1 0 0 0 2 16 70 131 180 237 315 379 410 513 632 807 1018 1257 1481 1647 1889 2061 2078 2087 2136 2181 2223 2236 2332 2492 2531 2536 2557 2592 2471 2331 2368 2244 2106 1978 1978 1784 1992 2028 1896 1878 2025 2077 1934 2040 1618
2 65 122 134 132 133 80 53 45 35 29 38 34 27 21 13 6 4 2 2 2 2 3 2 1 0 0 0 0 0 0 0 0 0 0 0 0 0 0 0 33 92 128 148 183 248 351 449 503 525 601 762 1017 1338 1497 1562 1771 2004 2132 2154 2116 2217 2260 2284 2244 2344 2414 2374 2368 2346 2157 2056 2081 1955 1846 1808 2173 2126 1885 1917 1880 1761 1640 1599 1441
27 37 1 39 119 119 95 80 86 60 46 30 22 22 16 12 10 8 4 6 4 2 1 0 1 0 0 0 0 0 0 0 0 0 0 0 0 0 0 0 0 23 16 0 12 41 176 283 400 454 538 577 628 692 904 1180 1263 1216 1394 1797 2111 2300 2305 2266 2221 2178 2179 2167 2110 2134 2149 1921 1937 1914 1880 1964 2054 2023 1821 1861 1838 1779 1733 1502 1212
7 9 12 27 78 87 98 86 69 66 44 11 22 23 18 16 11 6 5 1 1 1 0 0 1 0 0 0 0 0 0 0 0 0 0 0 0 0 0 0 0 0 0 48 138 185 248 294 298 268 247 264 378 532 656 698 761 840 954 1191 1421 1569 1668 1596 1530 1509 1608 1732 1843 1846 1733 1610 1615 1691 1742 1812 1926 2004 1760 1733 1594 1434 1371 1440 1218
11 9 10 18 16 30 56 55 45 44 24 8 13 11 6 8 7 7 1 0 0 1 0 0 0 0 0 0 0 0 0 0 0 0 0 0 0 0 0 0 0 2 4 74 184 205 258 258 273 284 284 281 338 409 472 545 689 840 970 1057 1086 1085 1114 1250 1378 1493 1670 1864 1922 1869 1768 1590 1534 1522 1613 1740 1830 1833 1665 1413 1458 1496 1350 1239 1050
10 16 16 10 8 14 18 17 10 14 11 15 14 11 11 8 2 1 0 0 0 0 0 0 0 0 0 1 0 0 0 0 0 0 0 0 0 0 0 0 0 18 48 18 160 285 341 358 369 333 328 361 376 367 396 455 516 678 887 1046 1152 1204 1236 1216 1262 1258 1296 1331 1370 1430 1495 1648 1744 1781 1772 1751 1630 1491 1368 1380 1224 1359 1198 1194 1323
4 9 8 4 4 7 12 7 2 2 2 1 1 1 0 0 0 0 0 0 0 0 0 0 0 0 0 0 0 0 0 0 0 0 0 1 0 1 1 1 0 1 212 277 299 326 384 410 401 373 423 455 450 442 409 394 440 479 502 520 574 713 818 980 1115 1129 1083 1057 1109 1202 1262 1232 1236 1352 1528 1533 1410 1355 1362 1263 1126 1025 939 1044 1082
16 10 12 22 19 6 4 3 8 4 1 1 1 2 2 0 0 0 0 0 0 0 0 0 0 0 0 0 2 0 1 1 1 1 1 1 1 0 0 0 104 145 189 234 281 324 386 449 470 493 511 487 454 423 420 434 458 508 572 627 630 627 637 720 787 787 755 760 816 898 906 867 846 888 1001 1042 992 1026 988 987 1113 1120 1062 944 730
Wind_Speed
13 17 19 18 17 15 14 15 13 12 9 8 8 9 9 9 9 9 10 10 9 8 7 6 6 5 4 5 3 3 3 2 1 1 0 1 3 4 2 4 4 3 3 3 4 6 3 2 1 0 3 4 5 5 5 3 2 3 3 3 4 4 4 4 6 5 5 5 6 5 6 5 1 5 2 2 2 8 6 4 5 3 4 12 17
10 15 17 19 18 17 16 16 15 14 10 9 7 9 9 11 11 10 9 11 10 9 9 7 6 6 5 5 4 3 5 3 1 1 1 0 1 1 2 1 1 1 0 2 3 3 2 3 3 3 2 1 2 2 2 2 1 1 1 2 3 3 3 3 4 5 5 3 3 3 4 1 2 5 3 1 1 4 3 5 5 4 6 6 16
11 14 17 20 19 19 17 17 17 14 11 10 8 8 10 11 12 11 11 13 13 11 10 9 8 7 6 7 6 5 5 5 3 1 2 1 0 1 1 2 3 2 2 2 2 2 2 2 3 3 3 2 2 2 2 2 2 2 1 1 0 1 0 1 2 2 3 2 1 2 2 3 1 2 2 1 3 4 4 4 5 6 7 5 5
10 15 15 20 22 21 19 18 17 16 14 12 9 8 10 12 14 12 12 14 13 13 11 10 10 10 8 8 8 6 6 5 4 3 2 1 1 1 1 2 1 1 1 1 3 3 2 2 2 2 3 2 2 2 2 2 1 2 2 3 2 2 2 2 3 1 2 2 2 2 3 5 4 2 2 4 3 4 5 6 6 5 8 8 3
17 14 15 19 22 22 20 19 18 17 15 15 12 11 10 nan 15 13 14 13 nan 15 14 12 12 12 10 9 9 8 7 6 5 3 3 3 3 2 2 2 1 1 1 2 1 2 2 2 2 1 1 2 1 1 2 2 0 1 1 3 3 3 3 3 3 3 2 1 2 3 3 2 3 3 4 4 3 5 6 8 7 6 7 8 4
16 15 12 16 20 20 21 20 18 17 17 16 15 14 13 nan nan 16 15 14 nan nan 15 14 13 12 12 11 10 9 9 8 7 4 3 3 4 3 3 3 3 3 3 2 2 2 2 2 2 2 1 1 1 1 0 1 0 0 1 2 3 3 3 3 3 2 2 2 2 2 2 1 2 3 3 4 4 4 6 7 7 8 9 9 8
18 19 15 14 15 19 20 20 20 20 19 18 18 17 15 nan nan nan 17 16 15 nan nan 15 15 13 13 12 11 11 11 9 9 8 5 4 4 5 4 5 4 5 4 4 4 3 3 3 3 3 2 2 2 2 2 2 1 0 2 2 2 2 2 3 4 3 2 3 3 3 3 2 3 3 4 5 4 4 3 5 6 8 11 11 12
21 23 25 19 14 17 17 19 20 22 22 22 20 19 18 16 17 nan 19 18 16 nan nan nan 16 15 14 13 12 13 13 12 11 10 9 7 6 6 6 5 5 6 6 6 5 4 3 3 3 4 4 4 3 1 1 2 3 2 3 3 3 3 2 2 3 3 4 3 4 3 3 3 4 4 4 5 6 6 5 3 4 7 8 11 10
14 15 21 21 19 17 16 20 21 23 23 25 23 21 20 19 19 19 19 18 18 17 nan nan nan 16 15 15 14 14 14 14 13 13 12 10 9 8 7 7 6 6 7 6 7 6 4 3 3 2 4 7 8 5 2 7 4 3 3 3 3 3 3 3 3 3 3 4 4 4 5 5 5 6 7 8 8 7 5 4 3 4 5 6 9
21 19 18 20 18 16 17 18 20 22 25 24 26 24 22 21 20 19 19 18 20 20 19 nan nan nan 17 16 15 15 15 15 17 16 16 15 13 11 10 10 8 8 9 8 6 6 6 5 3 2 5 6 9 11 9 7 5 3 4 4 4 4 4 4 4 5 5 5 5 6 7 7 8 9 10 10 9 9 9 9 7 5 5 5 7
22 21 22 19 19 18 17 18 17 21 24 25 26 26 25 24 23 23 21 21 21 22 19 17 17 nan nan 17 17 16 16 nan 21 22 20 16 15 15 13 13 12 10 9 10 9 8 7 6 5 4 8 13 12 13 12 11 11 8 5 4 4 5 6 6 7 7 7 6 7 8 8 7 7 6 6 5 6 6 6 8 7 7 6 5 6
27 26 26 24 25 22 20 19 18 19 21 24 26 27 27 26 26 24 22 21 23 20 19 18 18 16 17 17 17 17 17 16 nan nan 24 21 18 17 15 14 13 12 11 10 11 10 9 8 7 7 7 7 8 13 13 13 13 12 11 10 9 8 8 9 9 8 9 8 8 8 8 9 10 11 11 10 10 8 8 8 9 10 9 10 10
27 23 24 31 31 26 23 21 21 22 21 22 25 27 27 27 26 25 24 23 24 23 21 20 19 17 16 16 15 16 17 nan nan nan 27 26 22 18 16 15 14 13 13 12 12 12 12 11 10 9 nan 9 14 11 14 15 14 14 13 13 11 12 12 12 12 12 10 9 9 9 11 11 11 12 12 12 12 12 11 11 11 11 13 12 13
34 30 30 30 30 30 30 26 24 24 23 22 23 25 24 24 24 25 27 27 26 24 22 21 21 20 18 16 16 14 14 21 nan nan nan 28 26 23 17 15 nan nan 14 12 12 13 14 13 13 12 11 11 13 14 15 14 17 17 15 15 14 15 16 16 15 16 16 14 13 12 13 14 13 14 14 14 15 16 16 16 15 15 15 14 14
41 39 35 33 30 31 33 31 29 27 35 37 31 26 23 22 22 25 26 27 27 26 25 24 23 21 19 18 17 14 14 17 26 nan nan nan 28 26 20 17 16 15 nan 14 14 12 14 15 14 12 14 14 14 15 16 16 16 16 16 17 18 17 18 20 21 21 21 20 18 16 16 16 16 17 18 19 18 19 21 19 19 18 17 15 16
44 42 42 39 34 33 33 35 34 32 36 31 32 30 24 23 22 23 25 26 27 28 28 26 25 23 22 20 19 16 15 18 26 24 25 27 29 26 22 19 17 16 16 15 15 16 14 13 14 15 15 16 16 17 19 19 18 16 16 16 17 18 18 21 25 26 24 24 23 21 20 19 20 19 20 21 22 24 23 23 23 22 20 19 19
49 47 45 41 39 38 33 31 35 37 37 35 32 31 31 29 26 24 21 23 26 27 27 28 28 25 24 23 21 19 18 21 26 26 26 26 28 24 22 20 18 16 15 16 17 16 15 15 15 14 14 16 17 20 21 22 20 17 17 17 17 17 18 21 29 30 29 27 24 24 21 20 19 19 20 21 24 24 23 24 25 26 24 21 21
52 50 47 46 43 38 34 32 34 33 33 31 30 30 29 29 27 29 24 21 23 24 27 28 28 28 26 24 24 22 21 23 29 28 28 31 29 25 22 19 16 15 15 16 17 17 16 15 16 15 15 16 18 22 24 26 21 18 17 16 16 16 18 20 22 27 30 30 30 26 24 23 21 20 21 23 25 29 28 25 26 27 24 23 22
54 51 49 47 42 37 33 34 35 33 29 28 28 28 27 29 33 34 28 21 19 22 23 25 26 27 26 25 26 24 23 25 31 29 31 34 30 27 24 21 17 14 15 16 17 18 18 18 17 17 16 16 18 23 26 28 22 19 18 16 14 14 17 21 22 20 24 25 23 23 21 20 20 20 20 22 27 28 27 25 26 27 25 23 23
53 52 50 47 43 39 37 37 35 35 32 29 27 28 29 31 34 37 33 29 25 22 21 21 21 23 23 24 25 25 23 24 32 31 32 33 33 31 28 24 19 17 16 16 17 18 19 19 21 20 16 16 18 22 26 26 23 20 18 16 14 14 17 20 21 21 20 20 23 24 21 22 22 20 18 19 23 28 26 25 25 26 26 25 25
53 53 50 47 44 41 42 45 43 40 38 34 33 32 33 33 35 36 33 29 26 21 17 19 19 20 22 24 26 25 25 25 30 35 32 33 33 32 30 26 23 22 20 19 18 18 19 20 19 23 22 19 18 19 24 24 22 20 17 14 14 16 21 19 20 21 20 21 19 20 22 22 21 20 20 20 20 23 25 25 24 25 25 25 25
nan nan 49 47 46 45 45 46 45 44 45 43 40 40 37 34 33 32 32 29 22 18 18 18 17 19 20 20 22 23 24 26 26 35 33 34 34 34 30 27 27 26 24 22 21 20 19 20 21 23 25 23 22 21 21 23 22 21 16 13 13 15 18 20 20 21 21 22 23 22 20 19 21 22 21 21 22 23 24 25 25 24 24 24 24
nan nan nan nan 46 46 45 43 42 42 43 44 43 42 40 34 31 30 28 26 23 23 21 19 18 19 20 20 19 20 22 25 26 29 35 32 33 33 30 28 31 30 26 24 23 22 23 22 23 23 26 27 25 25 24 22 23 20 16 15 16 17 22 23 21 22 22 23 23 22 23 23 22 21 21 21 21 23 21 22 23 25 24 22 21
nan nan nan nan nan 42 40 42 43 42 40 40 42 42 40 38 33 30 29 27 27 26 26 25 21 20 19 19 18 19 23 24 27 25 29 34 32 31 29 25 27 31 29 26 26 25 25 25 27 27 28 30 29 29 28 27 24 20 19 18 17 21 25 23 23 23 24 23 24 23 22 21 21 21 22 21 20 23 22 20 22 24 25 23 22
nan nan nan nan nan nan nan 42 43 39 36 37 40 41 40 38 37 34 33 30 28 25 26 28 27 25 23 21 20 20 21 23 23 28 29 33 33 32 30 27 24 27 29 27 28 27 29 34 43 46 45 37 32 32 31 28 25 23 22 20 21 25 25 24 22 24 23 23 23 22 21 21 20 20 21 21 22 22 22 20 18 20 24 25 23
nan nan nan nan nan nan nan nan nan nan 41 41 40 38 36 34 34 35 34 33 31 27 26 27 28 28 26 24 23 23 23 24 24 29 36 33 32 32 32 31 28 28 27 28 26 26 26 27 31 35 38 42 42 40 36 34 29 25 21 21 24 24 25 24 25 23 21 20 20 20 20 21 21 20 21 21 22 21 22 22 22 21 22 23 24
nan nan nan nan nan nan nan nan nan nan nan nan 41 40 38 37 34 33 34 33 32 32 29 27 28 26 27 27 27 26 26 27 30 33 42 39 36 38 37 35 34 36 36 32 30 30 30 31 33 33 35 35 36 37 35 33 33 28 25 24 23 23 24 25 23 22 20 19 18 19 20 20 21 22 22 22 22 23 24 24 22 21 23 23 22
nan nan nan nan nan nan nan nan nan nan nan 40 38 37 38 36 34 34 35 35 34 33 31 29 28 26 28 30 31 30 30 35 37 45 44 35 33 36 39 37 37 39 37 37 37 34 32 33 33 31 31 30 31 32 30 28 25 25 24 24 23 22 21 21 21 19 18 19 19 19 20 22 21 21 21 20 20 22 25 24 23 22 22 23 22
nan nan nan nan nan nan nan nan nan nan nan nan nan 39 36 34 32 32 34 35 37 38 36 32 31 30 31 34 34 32 34 41 34 33 40 42 38 33 29 33 37 38 43 46 42 40 38 34 32 30 28 27 27 26 23 21 19 18 17 19 21 22 23 22 20 19 20 20 19 20 20 20 19 20 20 19 20 22 25 25 25 23 23 23 21
nan nan nan nan nan nan nan nan nan nan nan nan nan nan nan nan 41 36 34 31 32 nan 36 32 32 34 31 30 33 34 36 35 39 41 33 36 39 38 34 32 37 41 48 46 40 34 31 30 31 29 26 26 23 21 20 18 17 17 18 19 20 20 22 23 22 21 22 21 20 20 19 19 19 20 20 19 20 22 25 26 26 26 25 24 23
nan nan nan nan nan nan nan nan nan nan nan nan nan nan nan nan nan nan nan nan 28 nan nan nan nan nan nan 30 31 35 37 33 28 29 30 30 33 35 34 32 30 31 39 42 38 31 28 27 26 23 22 23 23 20 18 17 17 17 17 19 21 21 21 21 22 23 22 21 21 20 20 20 19 20 20 21 21 22 23 27 27 26 25 25 23
nan nan nan nan nan nan nan nan nan nan nan nan nan nan nan nan nan 45 nan nan nan nan 26 nan nan nan nan nan nan nan nan nan nan nan 30 31 33 36 36 35 34 35 38 40 33 27 28 27 24 20 19 22 22 21 19 18 16 15 16 17 16 21 23 21 22 21 21 20 21 21 21 21 22 22 22 22 23 22 23 24 25 25 25 25 24
nan nan nan nan nan nan nan nan nan nan nan nan nan nan nan nan nan nan 46 nan nan nan nan nan nan nan nan nan nan nan nan 28 28 28 27 27 30 36 42 38 36 40 43 36 28 24 25 25 22 19 19 21 23 22 22 19 17 16 16 16 16 19 21 22 27 24 22 20 21 21 22 22 23 24 26 25 25 23 25 24 23 25 26 26 26
nan nan nan nan nan nan nan nan nan nan nan nan nan nan nan nan nan nan nan nan nan 42 nan nan nan nan nan nan nan nan nan nan nan nan 29 28 30 40 42 41 37 36 36 30 26 22 22 21 18 16 18 22 24 25 22 20 21 19 18 16 16 18 21 23 28 28 26 25 25 24 24 24 27 26 26 26 27 27 26 24 23 23 24 24 25
nan nan nan nan nan nan nan nan nan nan nan nan nan nan nan nan nan nan nan nan nan nan nan nan nan nan nan nan nan nan nan nan nan nan nan nan 39 39 39 41 41 44 42 35 30 26 26 23 19 17 19 23 25 24 21 19 19 18 18 17 17 19 20 22 22 25 27 27 27 26 29 34 39 36 30 28 28 29 26 26 25 27 28 25 26
nan nan nan nan nan nan nan nan nan nan nan nan nan nan nan nan nan nan nan nan nan nan nan nan nan nan nan nan nan nan nan nan nan nan 35 41 42 41 37 38 41 40 39 39 35 30 29 26 22 20 22 25 25 23 21 19 18 20 20 20 19 21 21 21 26 30 33 36 39 46 49 42 35 32 32 34 35 35 33 30 30 31 30 27 29
nan nan nan nan nan nan nan nan nan nan nan nan nan nan nan nan nan nan nan nan nan nan nan nan nan nan nan nan nan nan nan 29 33 36 40 45 47 43 38 37 39 40 37 35 34 32 31 28 26 23 24 25 23 22 22 21 21 22 22 24 25 24 23 26 35 50 51 44 46 45 45 39 32 33 36 36 36 39 38 35 31 30 30 32 34
nan nan nan nan nan nan nan nan nan nan nan nan nan nan nan nan nan nan nan nan nan nan nan nan nan nan nan 51 51 49 50 nan nan nan nan nan 48 nan nan 38 39 39 38 36 35 33 31 30 29 26 25 23 22 22 22 23 23 23 23 25 27 27 26 35 55 47 38 39 40 42 41 39 37 36 37 36 35 36 38 38 38 37 38 39 38
nan nan nan nan nan nan nan nan nan nan nan nan nan nan nan nan nan nan nan nan nan nan nan nan nan nan nan nan nan nan nan 46 45 44 45 44 44 42 41 40 40 41 39 36 34 32 30 29 31 33 31 30 27 26 25 25 25 25 25 28 31 29 31 41 42 39 37 37 36 35 35 35 35 35 35 35 33 32 33 36 39 40 41 43 43
nan nan nan nan nan nan nan nan nan nan nan nan nan nan nan nan nan nan nan nan nan nan nan nan nan nan nan nan nan nan nan nan nan nan 47 44 42 41 43 42 41 41 39 36 34 33 31 31 31 31 32 33 33 32 30 33 33 31 32 35 37 31 31 35 41 38 38 38 34 34 33 33 33 33 32 34 33 34 34 35 37 40 41 43 45
nan nan nan nan nan nan nan nan nan nan nan nan nan nan nan nan nan nan nan nan nan nan nan nan nan nan nan nan nan nan nan nan nan nan nan nan 43 42 40 41 45 45 47 46 46 45 44 43 42 43 43 42 43 44 43 39 35 38 39 41 38 31 31 33 38 37 36 36 35 34 36 37 36 34 32 33 36 36 37 38 40 41 42 42 43
nan nan nan nan nan nan nan nan nan nan nan nan nan nan nan nan nan nan nan nan nan nan nan nan nan nan nan nan nan nan nan nan nan nan nan nan 43 44 49 51 50 48 47 47 48 48 49 46 44 44 45 46 48 50 49 46 46 46 45 42 38 34 31 31 32 34 34 33 36 37 38 40 40 38 37 37 38 39 39 39 41 40 39 38 38
47 nan nan 64 nan nan nan nan nan nan nan nan nan nan nan nan nan nan nan nan nan nan nan nan nan nan nan nan nan nan nan nan nan nan nan nan nan nan 52 52 51 nan 48 48 49 50 50 48 46 46 47 48 51 52 51 49 48 47 45 43 41 40 40 40 37 33 34 35 34 36 39 41 42 41 40 40 39 36 34 34 36 38 37 38 39
nan nan 48 53 61 69 nan nan nan nan nan nan nan nan nan nan nan nan nan nan nan nan nan nan nan nan nan nan nan nan nan nan nan nan nan nan nan nan nan nan nan 50 48 48 48 49 50 50 48 46 48 51 55 56 55 54 52 49 47 43 40 39 38 37 37 38 38 38 36 36 36 38 39 37 36 39 38 35 33 31 33 37 39 40 41
nan nan 43 46 52 58 nan nan nan nan nan nan nan nan nan nan nan nan nan nan nan nan nan nan nan nan nan nan nan nan nan nan nan nan nan nan nan nan nan nan nan nan 48 47 48 48 48 48 48 48 50 54 58 59 58 56 53 51 48 45 42 39 39 39 40 39 40 40 39 38 38 39 40 41 39 34 34 36 37 35 35 38 39 39 41
nan nan nan nan 45 49 nan nan nan nan nan nan nan nan nan nan nan nan nan nan nan nan nan nan nan nan nan nan nan nan nan nan nan nan nan nan nan nan nan nan nan nan nan nan nan nan 47 46 46 47 49 53 56 59 59 58 54 52 49 47 44 41 40 40 39 38 37 39 40 40 40 39 38 39 38 38 38 38 37 39 40 40 40 40 42
nan nan nan nan nan nan nan nan nan nan nan nan nan nan nan nan nan nan nan nan nan nan nan nan nan nan nan nan nan nan nan nan nan nan nan nan nan nan nan nan nan nan nan nan 51 48 47 47 46 45 46 47 49 53 55 54 53 50 49 46 44 41 40 40 39 38 38 39 41 42 42 41 40 39 38 39 39 39 40 40 41 42 43 44 47
nan nan nan nan nan nan nan nan nan nan nan nan nan nan nan nan nan nan nan nan nan nan nan nan nan nan nan nan nan nan nan nan nan nan nan nan nan nan nan nan nan nan nan nan 54 52 50 49 48 47 47 47 46 47 47 47 46 45 43 41 39 39 38 36 39 38 39 40 42 43 44 43 44 45 45 44 44 46 47 48 50 52 53 55 58
nan nan nan nan nan nan nan nan nan nan nan nan nan nan nan nan nan nan nan nan nan nan nan nan nan nan nan nan nan nan nan nan nan nan nan nan nan nan nan nan nan nan nan nan 53 54 53 52 51 50 50 50 50 49 48 46 43 41 39 38 39 35 35 39 41 44 45 45 48 50 51 52 51 51 51 52 53 55 57 57 57 58 60 61 62
nan nan nan nan nan nan nan nan nan nan nan nan nan nan nan nan nan nan nan nan nan nan nan nan nan nan nan nan nan nan nan nan nan nan nan nan nan nan nan nan nan nan 60 57 55 54 53 52 50 49 48 48 48 48 49 49 47 46 45 43 40 39 41 45 48 45 45 49 52 52 54 55 55 56 56 55 56 57 57 57 57 58 60 63 64
nan nan nan nan nan nan nan nan nan nan nan nan nan nan nan nan nan nan nan nan nan nan nan nan nan nan nan nan nan nan nan nan nan nan nan nan nan nan nan nan 65 64 63 60 57 55 53 51 49 47 46 46 47 48 49 50 50 48 47 47 48 48 50 50 50 51 52 52 54 55 56 58 59 58 57 58 60 62 62 63 63 62 60 60 63
Wind_Direction
257 243 239 238 243 242 241 240 243 239 232 238 234 246 249 243 247 235 239 234 238 242 243 238 253 269 283 294 328 312 305 305 279 246 186 123 131 126 161 345 14 16 7 9 24 71 343 27 44 64 190 188 201 191 187 173 145 133 122 116 106 102 96 109 115 121 134 138 159 164 174 204 167 292 307 336 299 298 292 291 282 259 257 301 311
255 260 247 247 245 249 249 247 250 243 245 241 238 244 245 252 244 242 239 244 236 238 246 247 248 257 274 276 273 282 279 274 250 250 276 205 99 66 53 67 17 12 27 1 24 89 36 27 58 65 40 132 171 180 205 186 231 147 135 113 116 102 87 98 106 118 121 126 100 117 134 164 53 355 352 306 240 260 285 276 294 289 293 263 302
272 257 258 248 250 252 247 252 252 258 259 246 247 244 250 252 251 245 239 241 243 232 240 242 244 252 251 261 268 267 268 291 295 250 247 288 344 124 123 353 3 18 350 347 6 6 45 41 49 60 68 49 36 95 147 184 209 216 259 291 336 114 182 332 137 125 112 120 159 114 45 17 339 227 247 311 286 291 291 298 292 291 280 296 294
263 262 255 250 253 251 249 249 257 261 263 256 254 245 246 252 253 251 248 241 247 246 236 242 247 246 251 256 265 264 277 284 290 308 316 309 302 298 151 157 198 334 335 314 334 332 345 359 58 74 75 69 101 134 139 160 240 260 233 245 235 230 234 258 298 243 204 190 223 208 194 196 205 227 274 305 318 301 293 278 293 314 315 308 344
230 234 245 256 253 250 252 250 254 259 262 263 266 257 246 nan 251 250 250 247 nan 251 251 239 239 248 251 257 261 266 271 277 281 294 303 301 308 295 285 285 260 216 234 247 262 289 310 329 323 344 86 107 94 84 95 77 200 213 289 285 287 296 291 295 304 317 302 274 244 244 226 224 221 217 231 227 251 285 303 312 304 302 301 303 299
246 228 234 257 252 253 249 248 252 258 259 261 267 265 258 nan nan 255 249 251 nan nan 257 253 245 249 251 254 260 265 264 266 270 268 286 302 293 283 272 270 271 268 273 274 268 281 289 301 305 317 308 344 359 28 201 82 116 297 200 215 251 281 295 307 312 324 330 319 298 266 286 284 280 283 272 265 254 249 259 269 286 301 306 304 299
220 240 245 248 247 251 251 248 246 251 252 254 258 261 262 nan nan nan 259 254 256 nan nan 261 256 255 257 256 261 264 268 269 261 266 259 244 266 277 274 275 271 270 279 282 279 281 299 302 310 324 332 336 359 344 324 320 299 260 280 285 289 271 294 304 315 339 340 342 342 341 337 343 325 321 315 321 319 300 262 265 273 277 288 292 299
204 227 225 231 244 254 253 252 249 246 249 249 250 259 261 260 262 nan 260 264 259 nan nan nan 265 260 261 262 261 261 267 268 268 265 262 258 258 263 264 262 270 277 275 281 288 294 303 305 312 330 341 339 344 344 311 281 278 320 304 298 307 314 321 335 332 341 352 6 13 10 10 346 334 343 343 335 353 2 360 341 311 290 280 282 286
238 226 249 238 227 249 254 255 249 249 250 250 252 253 258 260 258 261 261 262 263 262 nan nan nan 270 266 264 264 263 266 268 266 268 266 264 255 259 268 275 272 263 267 277 286 288 271 266 289 319 309 316 337 324 309 242 253 287 295 294 300 317 332 341 349 348 359 20 23 16 18 10 5 3 15 8 17 27 13 5 333 293 287 294 296
217 231 239 249 247 236 250 249 258 259 256 253 254 255 257 260 263 262 263 264 260 260 259 nan nan nan 271 269 265 262 260 260 268 280 272 262 262 253 256 262 264 261 262 260 260 276 286 280 269 283 264 273 296 308 314 308 295 277 243 267 293 309 321 328 331 336 347 2 11 10 16 10 5 2 5 7 5 10 18 6 6 356 332 311 297
227 220 229 232 237 238 246 253 249 257 259 257 256 256 255 257 259 260 263 265 263 262 262 266 267 nan nan 274 274 265 260 nan 279 285 283 274 260 259 253 253 262 261 260 259 257 259 264 272 263 276 282 284 290 308 313 325 329 330 331 331 286 282 301 319 323 327 329 344 345 353 359 352 353 351 345 351 356 351 347 334 334 325 322 314 315
236 232 217 220 224 226 232 240 244 244 254 259 258 258 257 255 254 258 262 267 265 270 272 269 264 268 269 275 279 277 273 271 nan nan 289 287 276 263 259 257 258 264 266 264 264 264 262 261 263 261 278 294 296 299 310 323 325 329 335 336 343 346 324 308 305 312 324 329 336 338 337 333 329 332 338 339 330 321 315 315 317 316 319 322 316
232 234 237 231 220 215 222 229 234 235 236 250 256 256 256 255 256 259 264 262 263 266 267 273 275 272 271 271 276 282 281 nan nan nan 295 296 295 284 266 262 262 263 266 269 268 266 264 268 262 259 nan 276 291 299 293 301 313 329 329 332 334 333 335 344 335 322 311 317 328 332 331 328 333 329 328 323 316 322 313 314 313 315 317 316 317
229 226 228 237 242 228 216 218 227 232 234 238 249 253 254 255 256 257 258 261 261 265 271 271 270 270 272 273 272 275 281 285 nan nan nan 302 302 292 279 276 nan nan 264 267 269 275 276 272 271 269 266 261 263 276 283 289 290 295 301 302 306 320 330 339 340 341 333 326 328 332 329 325 327 319 316 314 317 318 317 318 316 317 315 317 316
236 231 231 237 245 252 242 226 220 224 227 221 223 233 242 251 254 249 253 259 262 262 264 266 266 268 271 271 270 275 281 287 293 nan nan nan 305 295 289 285 276 272 nan 271 267 267 268 276 281 281 275 272 274 278 279 284 287 288 295 303 307 310 312 317 319 318 318 323 331 336 333 329 327 326 318 315 316 313 313 314 311 307 303 303 310
239 239 236 240 242 244 246 249 243 231 237 238 232 226 224 235 247 246 244 250 254 257 258 259 264 267 267 268 267 267 268 284 288 293 297 298 301 286 288 290 286 280 277 275 274 272 274 275 272 277 278 277 281 290 286 283 285 290 293 294 296 301 306 313 316 317 318 319 323 329 330 333 330 325 317 313 311 311 309 309 308 304 305 309 312
240 240 241 239 238 237 238 251 260 254 246 242 241 240 230 223 227 239 243 243 249 253 255 257 256 260 264 266 266 263 263 271 284 288 289 291 283 278 284 286 286 288 286 283 280 280 281 281 281 278 281 280 283 289 290 289 285 290 289 290 290 293 298 300 313 321 322 326 328 333 335 333 329 325 317 310 308 300 300 307 311 307 310 314 311
241 242 243 242 240 240 242 248 253 257 259 261 260 259 257 250 239 232 237 242 245 246 250 253 256 259 262 265 267 266 265 270 281 285 287 287 284 276 274 277 281 282 283 284 280 278 280 293 288 283 282 280 285 290 293 289 288 292 289 288 291 297 298 295 289 302 324 326 333 335 334 333 331 326 315 308 305 301 307 313 310 307 313 314 312
241 242 244 246 245 244 244 247 250 252 254 258 258 258 256 248 246 244 234 236 247 243 244 248 253 256 260 264 266 267 264 268 279 284 288 289 286 274 273 269 268 270 272 274 276 273 273 276 289 284 281 281 285 285 291 289 288 292 292 290 298 304 298 290 294 295 296 304 305 311 313 314 309 303 307 320 311 305 305 310 309 310 313 313 312
240 241 243 244 246 244 240 245 250 248 246 247 252 250 245 244 247 245 239 232 232 233 240 243 247 248 250 255 260 267 264 261 270 283 285 287 292 278 274 273 270 268 264 261 262 267 268 267 275 290 292 284 278 280 284 291 287 288 288 296 304 309 291 290 294 294 295 300 310 314 316 313 309 305 304 305 304 305 306 308 312 311 311 312 311
238 240 241 242 243 244 245 246 248 246 245 246 247 248 246 245 245 248 247 241 235 234 232 241 243 245 245 244 246 251 253 257 263 277 279 284 288 284 273 276 273 266 261 257 256 257 260 263 261 278 292 292 288 286 282 286 287 283 290 298 303 286 270 283 291 299 300 299 296 299 305 303 303 304 303 301 305 305 306 311 313 313 311 311 310
nan nan 238 239 239 241 244 248 249 249 248 248 246 249 251 245 251 260 260 258 260 254 244 240 239 241 244 246 248 248 244 244 249 268 278 282 285 291 277 275 273 268 264 258 256 254 256 256 256 264 282 288 289 288 290 287 293 282 292 306 298 286 277 280 281 283 288 294 299 302 300 296 298 298 297 298 300 300 302 305 312 316 312 312 310
nan nan nan nan 236 236 237 238 245 250 252 252 249 252 259 257 252 256 258 256 257 262 259 254 250 248 244 241 247 251 251 248 248 252 269 276 281 287 290 279 275 270 264 260 260 256 255 254 254 259 271 279 282 285 288 295 287 285 308 303 297 294 281 282 287 288 288 286 285 282 286 292 293 292 294 296 297 294 297 300 303 305 306 308 311
nan nan nan nan nan 234 233 236 240 242 244 248 252 257 259 261 262 265 262 253 247 247 251 254 255 253 252 250 249 249 253 253 262 268 267 276 277 280 281 282 274 266 265 259 257 256 254 255 253 255 264 272 275 279 283 287 284 299 299 300 299 292 283 285 289 290 287 287 288 289 289 287 290 294 293 291 289 287 292 293 297 305 305 311 312
nan nan nan nan nan nan nan 232 239 244 244 245 250 253 258 261 261 259 260 262 261 249 242 248 252 253 253 255 254 255 255 257 252 269 278 274 278 279 279 278 275 269 261 259 254 251 247 242 245 246 246 255 265 270 273 281 293 294 297 301 298 283 287 288 287 284 287 290 292 294 296 295 293 290 287 286 286 286 286 290 294 300 309 311 312
nan nan nan nan nan nan nan nan nan nan 239 243 246 251 251 254 258 262 260 257 255 252 246 243 246 249 250 253 255 253 253 249 251 252 262 268 272 281 285 286 284 280 269 252 250 247 248 245 239 242 250 257 258 259 261 268 281 291 297 295 281 281 280 281 281 284 288 291 293 295 295 292 293 292 289 288 288 291 290 292 296 301 301 303 307
nan nan nan nan nan nan nan nan nan nan nan nan 241 243 251 256 255 255 260 260 257 255 252 251 250 246 244 246 248 251 252 253 251 252 251 252 259 264 264 262 264 259 257 259 250 242 239 243 250 251 249 251 260 264 267 271 277 278 274 273 271 270 272 274 278 283 288 289 290 288 286 287 287 287 291 292 295 294 295 295 300 302 301 303 306
nan nan nan nan nan nan nan nan nan nan nan 239 241 243 245 247 249 252 256 257 256 255 255 254 257 256 252 248 248 249 249 248 247 246 247 248 250 253 259 264 266 267 266 262 259 253 249 248 250 254 261 263 267 268 268 269 273 274 272 270 267 267 270 273 275 276 280 282 281 281 281 282 285 289 290 294 298 295 295 298 300 303 305 304 306
nan nan nan nan nan nan nan nan nan nan nan nan nan 240 243 247 248 245 244 250 250 247 245 246 246 245 245 244 244 246 246 253 259 261 256 258 261 258 255 259 264 265 262 257 255 254 254 254 254 258 263 265 265 266 266 267 267 267 265 264 265 268 270 274 279 282 282 279 282 283 284 283 284 286 289 293 294 296 296 299 302 305 305 308 315
nan nan nan nan nan nan nan nan nan nan nan nan nan nan nan nan 246 244 244 242 237 nan 247 248 245 244 243 245 248 248 252 257 265 265 253 246 252 258 261 253 248 254 255 251 254 253 257 257 259 256 256 259 254 255 258 257 255 257 260 267 268 267 271 277 281 282 283 284 282 282 282 282 284 288 290 295 295 298 299 302 303 305 306 311 315
nan nan nan nan nan nan nan nan nan nan nan nan nan nan nan nan nan nan nan nan 249 nan nan nan nan nan nan 250 250 255 257 258 257 257 261 261 257 257 256 255 254 255 263 263 260 262 262 261 252 244 243 247 245 241 240 241 245 251 255 261 268 274 275 275 277 278 282 284 286 285 285 288 289 287 290 293 295 296 297 297 300 303 308 310 314
nan nan nan nan nan nan nan nan nan nan nan nan nan nan nan nan nan 256 nan nan nan nan 250 nan nan nan nan nan nan nan nan nan nan nan 255 257 256 251 247 245 247 254 260 268 265 264 261 255 243 234 236 241 239 233 231 233 237 241 247 253 259 269 278 279 275 275 278 281 281 282 286 289 289 289 290 289 287 291 292 293 297 300 302 304 306
nan nan nan nan nan nan nan nan nan nan nan nan nan nan nan nan nan nan 252 nan nan nan nan nan nan nan nan nan nan nan nan 251 248 247 247 248 248 245 243 244 247 255 262 262 266 267 263 251 235 227 232 236 239 238 236 236 237 240 242 245 249 254 262 272 279 278 278 277 277 278 277 279 281 281 283 282 282 284 284 287 290 292 293 297 299
nan nan nan nan nan nan nan nan nan nan nan nan nan nan nan nan nan nan nan nan nan 250 nan nan nan nan nan nan nan nan nan nan nan nan 253 254 253 247 246 245 251 259 264 257 257 256 260 252 236 228 234 238 237 240 239 236 242 245 245 242 237 242 249 255 265 271 275 275 273 271 268 268 269 271 272 274 277 279 279 282 286 288 291 295 297
nan nan nan nan nan nan nan nan nan nan nan nan nan nan nan nan nan nan nan nan nan nan nan nan nan nan nan nan nan nan nan nan nan nan nan nan 256 261 257 244 242 252 257 255 253 254 261 264 252 244 244 242 238 236 236 238 240 241 244 244 243 244 246 251 257 262 263 263 263 263 258 253 250 251 259 270 277 276 282 288 292 292 289 293 295
nan nan nan nan nan nan nan nan nan nan nan nan nan nan nan nan nan nan nan nan nan nan nan nan nan nan nan nan nan nan nan nan nan nan 252 254 261 270 257 247 240 238 245 254 257 257 258 259 257 250 245 241 236 235 235 235 238 240 241 242 245 251 254 256 257 258 255 253 250 250 255 262 274 284 286 284 287 289 288 290 292 292 295 297 295
nan nan nan nan nan nan nan nan nan nan nan nan nan nan nan nan nan nan nan nan nan nan nan nan nan nan nan nan nan nan nan 256 254 258 262 261 267 266 260 253 243 241 244 250 256 256 253 249 250 248 246 243 239 236 235 234 235 240 243 246 249 252 254 257 253 252 253 262 269 275 280 283 286 283 280 279 279 280 281 282 282 286 291 298 297
nan nan nan nan nan nan nan nan nan nan nan nan nan nan nan nan nan nan nan nan nan nan nan nan nan nan nan 250 247 247 254 nan nan nan nan nan 264 nan nan 258 252 247 246 249 254 257 254 247 245 249 252 252 247 242 238 238 239 240 242 247 251 253 259 258 260 272 286 287 288 287 286 285 284 284 284 285 289 292 293 293 290 291 294 298 294
nan nan nan nan nan nan nan nan nan nan nan nan nan nan nan nan nan nan nan nan nan nan nan nan nan nan nan nan nan nan nan 251 253 251 253 261 266 261 259 260 256 252 251 253 251 249 245 242 242 245 246 247 247 247 245 243 243 243 244 247 249 251 258 267 277 286 287 286 286 290 289 289 291 291 292 293 298 302 303 304 304 301 299 298 297
nan nan nan nan nan nan nan nan nan nan nan nan nan nan nan nan nan nan nan nan nan nan nan nan nan nan nan nan nan nan nan nan nan nan 249 252 253 255 259 259 257 255 254 256 257 256 251 242 239 242 245 246 244 241 239 240 239 242 246 248 247 249 257 268 277 281 283 286 288 287 289 288 289 289 290 293 297 299 302 304 303 302 300 298 296
nan nan nan nan nan nan nan nan nan nan nan nan nan nan nan nan nan nan nan nan nan nan nan nan nan nan nan nan nan nan nan nan nan nan nan nan 252 251 249 251 251 249 245 245 246 246 246 244 240 238 238 239 239 242 242 245 245 247 248 253 259 262 265 268 274 278 281 284 286 286 286 287 286 288 291 293 296 299 298 298 297 298 298 298 298
nan nan nan nan nan nan nan nan nan nan nan nan nan nan nan nan nan nan nan nan nan nan nan nan nan nan nan nan nan nan nan nan nan nan nan nan 250 249 248 248 249 248 246 244 243 242 242 242 241 240 239 239 240 243 243 244 245 246 248 250 253 254 257 260 265 271 275 278 282 285 286 288 290 293 297 296 297 299 299 299 297 297 298 300 300
246 nan nan 247 nan nan nan nan nan nan nan nan nan nan nan nan nan nan nan nan nan nan nan nan nan nan nan nan nan nan nan nan nan nan nan nan nan nan 244 244 244 nan 244 243 243 242 241 241 242 242 241 239 241 245 247 248 247 247 248 249 248 247 245 245 249 257 266 272 276 282 286 287 289 292 294 297 298 296 294 294 293 294 297 297 297
nan nan 248 246 244 242 nan nan nan nan nan nan nan nan nan nan nan nan nan nan nan nan nan nan nan nan nan nan nan nan nan nan nan nan nan nan nan nan nan nan nan 243 242 242 242 242 242 241 241 242 243 243 243 244 246 247 247 248 249 249 248 247 247 248 250 252 256 260 268 274 279 283 287 291 295 297 298 299 299 301 299 296 295 294 296
nan nan 246 246 245 243 nan nan nan nan nan nan nan nan nan nan nan nan nan nan nan nan nan nan nan nan nan nan nan nan nan nan nan nan nan nan nan nan nan nan nan nan 244 244 243 243 244 243 241 241 243 244 243 242 242 243 245 247 248 249 248 248 249 251 253 255 257 259 262 266 270 275 283 288 291 293 295 296 296 300 300 295 295 297 298
nan nan nan nan 242 242 nan nan nan nan nan nan nan nan nan nan nan nan nan nan nan nan nan nan nan nan nan nan nan nan nan nan nan nan nan nan nan nan nan nan nan nan nan nan nan nan 246 246 246 244 244 245 244 242 240 239 240 243 245 247 248 249 250 253 256 259 263 267 270 271 273 275 279 284 289 291 291 293 295 294 293 296 296 297 296
nan nan nan nan nan nan nan nan nan nan nan nan nan nan nan nan nan nan nan nan nan nan nan nan nan nan nan nan nan nan nan nan nan nan nan nan nan nan nan nan nan nan nan nan 246 246 246 247 248 248 247 246 245 243 241 240 240 241 243 245 247 249 253 256 260 265 268 271 273 275 274 274 277 280 286 289 291 291 292 293 295 298 299 300 298
nan nan nan nan nan nan nan nan nan nan nan nan nan nan nan nan nan nan nan nan nan nan nan nan nan nan nan nan nan nan nan nan nan nan nan nan nan nan nan nan nan nan nan nan 240 242 243 245 245 246 247 246 245 245 244 243 242 243 244 246 250 252 252 255 264 266 267 269 273 274 273 273 272 274 275 278 280 282 283 282 283 284 286 288 291
nan nan nan nan nan nan nan nan nan nan nan nan nan nan nan nan nan nan nan nan nan nan nan nan nan nan nan nan nan nan nan nan nan nan nan nan nan nan nan nan nan nan nan nan 245 244 244 245 245 246 247 248 248 247 247 247 247 248 250 253 251 246 251 254 261 267 269 271 271 271 271 270 269 270 271 273 276 280 283 283 284 287 289 291 291
nan nan nan nan nan nan nan nan nan nan nan nan nan nan nan nan nan nan nan nan nan nan nan nan nan nan nan nan nan nan nan nan nan nan nan nan nan nan nan nan nan nan 248 249 250 249 247 247 248 250 251 251 251 251 251 251 250 250 252 252 246 247 251 255 258 261 272 272 272 273 273 273 272 272 272 273 273 274 275 276 278 282 284 287 288
nan nan nan nan nan nan nan nan nan nan nan nan nan nan nan nan nan nan nan nan nan nan nan nan nan nan nan nan nan nan nan nan nan nan nan nan nan nan nan nan 250 249 248 247 247 247 244 244 244 246 248 250 254 256 257 256 255 254 251 248 249 252 253 255 263 261 264 272 275 274 273 273 273 273 273 274 276 276 276 278 278 279 281 283 286